Time,TemperatureF,DewpointF,PressureIn,WindDirection,WindDirectionDegrees,WindSpeedMPH,WindSpeedGustMPH,Humidity,HourlyPrecipIn,Conditions,Clouds,dailyrainin,SoftwareType,DateUTC
2015-09-02 00:00:00,81.0,66.3,29.93,East,90,2.9,2.9,61,0.00,,,0.00,WUHU216HW,2015-09-02 07:00:00,
2015-09-02 00:05:00,80.6,66.0,29.93,SSW,203,0.7,2.9,61,0.00,,,0.00,WUHU216HW,2015-09-02 07:05:00,
2015-09-02 00:10:00,80.6,66.0,29.93,North,0,0.0,2.9,61,0.00,,,0.00,WUHU216HW,2015-09-02 07:10:00,
2015-09-02 00:15:00,80.6,66.0,29.93,NNE,23,0.0,0.7,61,0.00,,,0.00,WUHU216HW,2015-09-02 07:15:00,
2015-09-02 00:20:00,80.5,66.2,29.94,NNE,23,0.0,0.4,62,0.00,,,0.00,WUHU216HW,2015-09-02 07:20:00,
2015-09-02 00:25:00,80.5,66.2,29.94,NNE,23,0.0,0.0,62,0.00,,,0.00,WUHU216HW,2015-09-02 07:25:00,
2015-09-02 00:30:00,80.3,66.5,29.94,NNE,23,0.0,0.0,63,0.00,,,0.00,WUHU216HW,2015-09-02 07:30:00,
2015-09-02 00:35:00,80.3,66.5,29.94,NNE,23,0.0,0.0,63,0.00,,,0.00,WUHU216HW,2015-09-02 07:35:00,
2015-09-02 00:40:00,80.3,66.5,29.94,NW,315,0.0,0.0,63,0.00,,,0.00,WUHU216HW,2015-09-02 07:40:00,
2015-09-02 00:45:00,79.9,66.6,29.93,NNE,23,0.0,0.9,64,0.00,,,0.00,WUHU216HW,2015-09-02 07:45:00,
2015-09-02 00:50:00,79.9,66.6,29.94,NE,45,0.0,0.9,64,0.00,,,0.00,WUHU216HW,2015-09-02 07:50:00,
2015-09-02 00:55:00,79.9,66.6,29.94,NE,45,1.1,1.3,64,0.00,,,0.00,WUHU216HW,2015-09-02 07:55:00,
2015-09-02 01:00:00,79.9,66.6,29.94,NE,45,0.9,1.3,64,0.00,,,0.00,WUHU216HW,2015-09-02 08:00:00,
2015-09-02 01:05:00,79.7,66.5,29.94,NE,45,0.0,1.1,64,0.00,,,0.00,WUHU216HW,2015-09-02 08:05:00,
2015-09-02 01:10:00,79.7,66.5,29.93,NNE,23,1.1,1.8,64,0.00,,,0.00,WUHU216HW,2015-09-02 08:10:00,
2015-09-02 01:15:00,79.6,66.3,29.93,NNE,23,0.9,1.8,64,0.00,,,0.00,WUHU216HW,2015-09-02 08:15:00,
2015-09-02 01:20:00,79.6,65.9,29.93,North,0,0.9,1.3,63,0.00,,,0.00,WUHU216HW,2015-09-02 08:20:00,
2015-09-02 01:25:00,79.7,65.2,29.93,NNE,23,1.1,1.3,61,0.00,,,0.00,WUHU216HW,2015-09-02 08:25:00,
2015-09-02 01:30:00,79.7,65.2,29.93,NNE,23,1.1,1.1,61,0.00,,,0.00,WUHU216HW,2015-09-02 08:30:00,
2015-09-02 01:35:00,79.7,65.2,29.93,NNE,23,0.9,1.1,61,0.00,,,0.00,WUHU216HW,2015-09-02 08:35:00,
2015-09-02 01:40:00,79.9,65.4,29.92,North,0,0.2,1.1,61,0.00,,,0.00,WUHU216HW,2015-09-02 08:40:00,
2015-09-02 01:45:00,79.9,65.4,29.93,NE,45,1.1,1.8,61,0.00,,,0.00,WUHU216HW,2015-09-02 08:45:00,
2015-09-02 01:50:00,79.7,65.2,29.92,ESE,113,1.1,1.8,61,0.00,,,0.00,WUHU216HW,2015-09-02 08:50:00,
2015-09-02 01:55:00,79.6,65.0,29.93,NE,45,0.0,1.1,61,0.00,,,0.00,WUHU216HW,2015-09-02 08:55:00,
2015-09-02 02:00:00,79.6,65.0,29.93,NE,45,0.0,1.1,61,0.00,,,0.00,WUHU216HW,2015-09-02 09:00:00,
2015-09-02 02:05:00,79.6,65.4,29.93,East,90,0.0,0.0,62,0.00,,,0.00,WUHU216HW,2015-09-02 09:05:00,
2015-09-02 02:10:00,79.4,65.3,29.93,North,0,0.0,0.0,62,0.00,,,0.00,WUHU216HW,2015-09-02 09:10:00,
2015-09-02 02:15:00,79.2,65.1,29.93,NE,45,0.0,0.0,62,0.00,,,0.00,WUHU216HW,2015-09-02 09:15:00,
2015-09-02 02:20:00,79.2,65.5,29.93,SE,135,1.1,1.8,63,0.00,,,0.00,WUHU216HW,2015-09-02 09:20:00,
2015-09-02 02:25:00,79.2,65.5,29.93,NE,45,0.9,1.8,63,0.00,,,0.00,WUHU216HW,2015-09-02 09:25:00,
2015-09-02 02:30:00,79.0,65.3,29.93,NNE,23,1.1,1.1,63,0.00,,,0.00,WUHU216HW,2015-09-02 09:30:00,
2015-09-02 02:35:00,78.8,65.6,29.93,NNE,23,0.0,1.1,64,0.00,,,0.00,WUHU216HW,2015-09-02 09:35:00,
2015-09-02 02:40:00,78.8,66.1,29.93,NE,45,1.1,1.3,65,0.00,,,0.00,WUHU216HW,2015-09-02 09:40:00,
2015-09-02 02:45:00,78.7,65.9,29.93,NNE,23,1.8,1.8,65,0.00,,,0.00,WUHU216HW,2015-09-02 09:45:00,
2015-09-02 02:50:00,78.7,65.9,29.93,NNE,23,0.2,1.8,65,0.00,,,0.00,WUHU216HW,2015-09-02 09:50:00,
2015-09-02 02:55:00,78.7,65.9,29.93,NNE,23,0.0,1.3,65,0.00,,,0.00,WUHU216HW,2015-09-02 09:55:00,
2015-09-02 03:00:00,78.7,65.9,29.93,WSW,248,0.9,0.9,65,0.00,,,0.00,WUHU216HW,2015-09-02 10:00:00,
2015-09-02 03:05:00,78.7,66.3,29.93,North,0,0.9,0.9,66,0.00,,,0.00,WUHU216HW,2015-09-02 10:05:00,
2015-09-02 03:10:00,78.5,66.2,29.93,NNE,23,1.1,1.8,66,0.00,,,0.00,WUHU216HW,2015-09-02 10:10:00,
2015-09-02 03:15:00,78.5,66.2,29.93,NNE,23,0.9,1.8,66,0.00,,,0.00,WUHU216HW,2015-09-02 10:15:00,
2015-09-02 03:20:00,78.3,66.0,29.93,NNE,23,1.6,2.0,66,0.00,,,0.00,WUHU216HW,2015-09-02 10:20:00,
2015-09-02 03:25:00,78.3,66.0,29.93,NNE,23,1.8,2.0,66,0.00,,,0.00,WUHU216HW,2015-09-02 10:25:00,
2015-09-02 03:30:00,78.3,66.0,29.93,NNE,23,2.2,2.5,66,0.00,,,0.00,WUHU216HW,2015-09-02 10:30:00,
2015-09-02 03:35:00,78.3,65.5,29.93,SE,135,1.1,2.7,65,0.00,,,0.00,WUHU216HW,2015-09-02 10:35:00,
2015-09-02 03:40:00,78.3,65.5,29.93,ENE,68,1.1,2.7,65,0.00,,,0.00,WUHU216HW,2015-09-02 10:40:00,
2015-09-02 03:45:00,78.1,65.3,29.93,NE,45,0.0,1.1,65,0.00,,,0.00,WUHU216HW,2015-09-02 10:45:00,
2015-09-02 03:50:00,78.1,65.3,29.93,East,90,1.1,1.1,65,0.00,,,0.00,WUHU216HW,2015-09-02 10:50:00,
2015-09-02 03:55:00,78.1,65.3,29.93,NNE,23,1.8,2.5,65,0.00,,,0.00,WUHU216HW,2015-09-02 10:55:00,
2015-09-02 04:00:00,78.1,65.3,29.93,NNE,23,1.6,2.5,65,0.00,,,0.00,WUHU216HW,2015-09-02 11:00:00,
2015-09-02 04:05:00,78.1,65.3,29.93,North,0,1.3,1.8,65,0.00,,,0.00,WUHU216HW,2015-09-02 11:05:00,
2015-09-02 04:10:00,78.1,65.0,29.93,East,90,0.0,1.6,64,0.00,,,0.00,WUHU216HW,2015-09-02 11:10:00,
2015-09-02 04:15:00,78.1,65.3,29.93,NE,45,1.8,1.8,65,0.00,,,0.00,WUHU216HW,2015-09-02 11:15:00,
2015-09-02 04:20:00,77.9,64.8,29.92,North,0,1.8,1.8,64,0.00,,,0.00,WUHU216HW,2015-09-02 11:20:00,
2015-09-02 04:25:00,77.9,64.4,29.93,North,0,1.6,1.8,63,0.00,,,0.00,WUHU216HW,2015-09-02 11:25:00,
2015-09-02 04:30:00,77.9,64.8,29.93,NE,45,1.1,1.8,64,0.00,,,0.00,WUHU216HW,2015-09-02 11:30:00,
2015-09-02 04:35:00,77.9,64.4,29.93,NNE,23,1.1,1.6,63,0.00,,,0.00,WUHU216HW,2015-09-02 11:35:00,
2015-09-02 04:40:00,77.9,64.8,29.93,SE,135,1.8,1.8,64,0.00,,,0.00,WUHU216HW,2015-09-02 11:40:00,
2015-09-02 04:45:00,77.9,64.8,29.93,SSE,158,1.1,1.8,64,0.00,,,0.00,WUHU216HW,2015-09-02 11:45:00,
2015-09-02 04:50:00,77.9,64.8,29.93,NE,45,1.1,1.8,64,0.00,,,0.00,WUHU216HW,2015-09-02 11:50:00,
2015-09-02 04:55:00,77.8,64.6,29.93,NE,45,0.0,1.1,64,0.00,,,0.00,WUHU216HW,2015-09-02 11:55:00,
2015-09-02 05:00:00,77.8,64.2,29.93,North,0,0.2,1.1,63,0.00,,,0.00,WUHU216HW,2015-09-02 12:00:00,
2015-09-02 05:05:00,77.8,64.6,29.93,East,90,1.1,1.1,64,0.00,,,0.00,WUHU216HW,2015-09-02 12:05:00,
2015-09-02 05:10:00,77.8,64.6,29.93,ENE,68,1.6,1.6,64,0.00,,,0.00,WUHU216HW,2015-09-02 12:10:00,
2015-09-02 05:15:00,77.8,64.6,29.93,NE,45,2.5,2.5,64,0.00,,,0.00,WUHU216HW,2015-09-02 12:15:00,
2015-09-02 05:20:00,77.6,64.5,29.93,NNE,23,1.3,2.5,64,0.00,,,0.00,WUHU216HW,2015-09-02 12:20:00,
2015-09-02 05:25:00,77.6,64.5,29.93,NNE,23,0.9,2.5,64,0.00,,,0.00,WUHU216HW,2015-09-02 12:25:00,
2015-09-02 05:30:00,77.6,64.5,29.94,East,90,0.7,1.6,64,0.00,,,0.00,WUHU216HW,2015-09-02 12:30:00,
2015-09-02 05:35:00,77.6,64.5,29.94,NW,315,1.1,1.6,64,0.00,,,0.00,WUHU216HW,2015-09-02 12:35:00,
2015-09-02 05:40:00,77.4,64.3,29.94,NE,45,0.2,1.3,64,0.00,,,0.00,WUHU216HW,2015-09-02 12:40:00,
2015-09-02 05:45:00,77.4,64.7,29.94,East,90,0.0,1.3,65,0.00,,,0.00,WUHU216HW,2015-09-02 12:45:00,
2015-09-02 05:50:00,77.4,64.7,29.94,ENE,68,1.1,1.1,65,0.00,,,0.00,WUHU216HW,2015-09-02 12:50:00,
2015-09-02 05:55:00,77.4,65.2,29.94,NE,45,1.1,1.1,66,0.00,,,0.00,WUHU216HW,2015-09-02 12:55:00,
2015-09-02 06:00:00,77.2,65.0,29.94,North,0,0.2,1.1,66,0.00,,,0.00,WUHU216HW,2015-09-02 13:00:00,
2015-09-02 06:05:00,77.2,65.0,29.94,NNE,23,0.2,1.3,66,0.00,,,0.00,WUHU216HW,2015-09-02 13:05:00,
2015-09-02 06:10:00,77.0,64.8,29.95,SE,135,1.3,1.3,66,0.00,,,0.00,WUHU216HW,2015-09-02 13:10:00,
2015-09-02 06:15:00,77.0,65.3,29.94,NE,45,1.6,1.6,67,0.00,,,0.00,WUHU216HW,2015-09-02 13:15:00,
2015-09-02 06:20:00,76.9,65.1,29.94,NNE,23,0.0,1.6,67,0.00,,,0.00,WUHU216HW,2015-09-02 13:20:00,
2015-09-02 06:25:00,77.0,65.7,29.95,NE,45,1.3,1.6,68,0.00,,,0.00,WUHU216HW,2015-09-02 13:25:00,
2015-09-02 06:30:00,77.0,65.7,29.95,ENE,68,2.7,2.7,68,0.00,,,0.00,WUHU216HW,2015-09-02 13:30:00,
2015-09-02 06:35:00,76.9,65.1,29.95,ENE,68,2.0,2.7,67,0.00,,,0.00,WUHU216HW,2015-09-02 13:35:00,
2015-09-02 06:40:00,76.9,64.6,29.95,NNE,23,1.8,2.7,66,0.00,,,0.00,WUHU216HW,2015-09-02 13:40:00,
2015-09-02 06:41:00,76.9,64.6,29.95,NNE,23,1.8,2.7,66,0.00,,,0.00,WUHU216HW,2015-09-02 13:41:00,
2015-09-02 06:42:00,76.9,64.6,29.95,NNE,23,1.8,2.7,66,0.00,,,0.00,WUHU216HW,2015-09-02 13:42:00,
2015-09-02 06:47:00,77.0,64.8,29.95,NNE,23,1.1,2.0,66,0.00,,,0.00,WUHU216HW,2015-09-02 13:47:00,
2015-09-02 06:52:00,77.0,64.8,29.95,ESE,113,0.0,1.8,66,0.00,,,0.00,WUHU216HW,2015-09-02 13:52:00,
2015-09-02 06:57:00,77.2,65.0,29.95,South,180,0.0,1.6,66,0.00,,,0.00,WUHU216HW,2015-09-02 13:57:00,
2015-09-02 07:02:00,77.4,65.6,29.96,South,180,0.0,0.4,67,0.00,,,0.00,WUHU216HW,2015-09-02 14:02:00,
2015-09-02 07:07:00,77.4,65.6,29.96,SSW,203,0.0,0.0,67,0.00,,,0.00,WUHU216HW,2015-09-02 14:07:00,
2015-09-02 07:12:00,77.4,66.1,29.96,SSW,203,0.0,0.0,68,0.00,,,0.00,WUHU216HW,2015-09-02 14:12:00,
2015-09-02 07:17:00,77.6,66.3,29.96,SSW,203,0.0,0.0,68,0.00,,,0.00,WUHU216HW,2015-09-02 14:17:00,
2015-09-02 07:22:00,77.8,66.8,29.96,SSW,203,0.0,0.0,69,0.00,,,0.00,WUHU216HW,2015-09-02 14:22:00,
2015-09-02 07:27:00,78.1,67.6,29.96,South,180,2.2,2.2,70,0.00,,,0.00,WUHU216HW,2015-09-02 14:27:00,
2015-09-02 07:32:00,78.1,67.6,29.96,SW,225,1.6,2.2,70,0.00,,,0.00,WUHU216HW,2015-09-02 14:32:00,
2015-09-02 07:37:00,78.3,67.3,29.96,SSE,158,0.0,2.2,69,0.00,,,0.00,WUHU216HW,2015-09-02 14:37:00,
2015-09-02 07:42:00,78.7,67.2,29.96,SSE,158,0.0,0.0,68,0.00,,,0.00,WUHU216HW,2015-09-02 14:42:00,
2015-09-02 07:47:00,78.8,67.3,29.96,SSE,158,0.0,0.0,68,0.00,,,0.00,WUHU216HW,2015-09-02 14:47:00,
2015-09-02 07:52:00,79.2,67.7,29.96,SSE,158,0.0,0.0,68,0.00,,,0.00,WUHU216HW,2015-09-02 14:52:00,
2015-09-02 07:57:00,79.6,67.6,29.96,SSW,203,0.0,0.0,67,0.00,,,0.00,WUHU216HW,2015-09-02 14:57:00,
2015-09-02 08:02:00,80.1,68.1,29.96,SSW,203,1.8,1.8,67,0.00,,,0.00,WUHU216HW,2015-09-02 15:02:00,
2015-09-02 08:07:00,80.3,67.9,29.96,SE,135,0.0,1.8,66,0.00,,,0.00,WUHU216HW,2015-09-02 15:07:00,
2015-09-02 08:12:00,80.6,68.2,29.96,SE,135,0.0,1.8,66,0.00,,,0.00,WUHU216HW,2015-09-02 15:12:00,
2015-09-02 08:17:00,80.8,68.0,29.96,SSE,158,0.0,0.0,65,0.00,,,0.00,WUHU216HW,2015-09-02 15:17:00,
2015-09-02 08:22:00,81.2,68.2,29.96,South,180,0.0,0.0,65,0.00,,,0.00,WUHU216HW,2015-09-02 15:22:00,
2015-09-02 08:27:00,81.5,68.1,29.96,SW,225,1.1,1.1,64,0.00,,,0.00,WUHU216HW,2015-09-02 15:27:00,
2015-09-02 08:32:00,81.7,68.3,29.96,SSW,203,1.1,1.8,64,0.00,,,0.00,WUHU216HW,2015-09-02 15:32:00,
2015-09-02 08:37:00,81.9,68.5,29.96,SSE,158,0.2,1.8,64,0.00,,,0.00,WUHU216HW,2015-09-02 15:37:00,
2015-09-02 08:42:00,82.1,68.1,29.96,SSE,158,0.0,1.1,63,0.00,,,0.00,WUHU216HW,2015-09-02 15:42:00,
2015-09-02 08:47:00,82.1,68.1,29.96,SSW,203,1.8,1.8,63,0.00,,,0.00,WUHU216HW,2015-09-02 15:47:00,
2015-09-02 08:52:00,82.1,67.2,29.96,SW,225,1.3,1.8,61,0.00,,,0.00,WUHU216HW,2015-09-02 15:52:00,
2015-09-02 08:57:00,82.3,67.4,29.96,West,270,0.0,1.8,61,0.00,,,0.00,WUHU216HW,2015-09-02 15:57:00,
2015-09-02 09:02:00,82.4,66.6,29.96,SW,225,0.2,1.3,59,0.00,,,0.00,WUHU216HW,2015-09-02 16:02:00,
2015-09-02 09:07:00,82.8,66.4,29.96,SE,135,0.0,0.4,58,0.00,,,0.00,WUHU216HW,2015-09-02 16:07:00,
2015-09-02 09:12:00,83.2,66.3,29.96,SSW,203,1.8,1.8,57,0.00,,,0.00,WUHU216HW,2015-09-02 16:12:00,
2015-09-02 09:17:00,83.5,66.7,29.96,South,180,1.8,1.8,57,0.00,,,0.00,WUHU216HW,2015-09-02 16:17:00,
2015-09-02 09:22:00,83.9,66.0,29.96,SSE,158,0.4,1.8,55,0.00,,,0.00,WUHU216HW,2015-09-02 16:22:00,
2015-09-02 09:27:00,84.2,67.4,29.96,SSE,158,0.0,1.8,57,0.00,,,0.00,WUHU216HW,2015-09-02 16:27:00,
2015-09-02 09:32:00,84.6,67.1,29.96,NNW,338,0.0,0.4,56,0.00,,,0.00,WUHU216HW,2015-09-02 16:32:00,
2015-09-02 09:37:00,85.0,67.5,29.96,SE,135,0.9,0.9,56,0.00,,,0.00,WUHU216HW,2015-09-02 16:37:00,
2015-09-02 09:42:00,85.5,68.0,29.96,SSE,158,2.2,2.2,56,0.00,,,0.00,WUHU216HW,2015-09-02 16:42:00,
2015-09-02 09:47:00,86.4,68.3,29.96,South,180,0.9,2.2,55,0.00,,,0.00,WUHU216HW,2015-09-02 16:47:00,
2015-09-02 09:52:00,87.1,68.4,29.96,SSW,203,0.2,2.2,54,0.00,,,0.00,WUHU216HW,2015-09-02 16:52:00,
2015-09-02 09:57:00,87.3,67.5,29.96,SE,135,0.0,0.9,52,0.00,,,0.00,WUHU216HW,2015-09-02 16:57:00,
2015-09-02 10:07:00,87.3,67.1,29.96,South,180,1.8,1.8,51,0.00,,,0.00,WUHU216HW,2015-09-02 17:07:00,
2015-09-02 10:12:00,87.5,67.1,29.96,SSE,158,0.9,1.8,51,0.00,,,0.00,WUHU216HW,2015-09-02 17:12:00,
2015-09-02 10:17:00,87.5,67.1,29.96,SE,135,0.0,1.8,51,0.00,,,0.00,WUHU216HW,2015-09-02 17:17:00,
2015-09-02 10:22:00,87.7,66.8,29.96,SSE,158,1.1,1.1,50,0.00,,,0.00,WUHU216HW,2015-09-02 17:22:00,
2015-09-02 10:27:00,87.7,67.3,29.96,SE,135,1.3,2.2,51,0.00,,,0.00,WUHU216HW,2015-09-02 17:27:00,
2015-09-02 10:32:00,88.0,67.2,29.96,SW,225,1.8,2.5,50,0.00,,,0.00,WUHU216HW,2015-09-02 17:32:00,
2015-09-02 10:37:00,88.0,67.2,29.95,SSE,158,0.0,2.5,50,0.00,,,0.00,WUHU216HW,2015-09-02 17:37:00,
2015-09-02 10:42:00,87.8,66.3,29.95,NW,315,1.8,2.2,49,0.00,,,0.00,WUHU216HW,2015-09-02 17:42:00,
2015-09-02 10:47:00,87.8,66.3,29.95,SW,225,0.2,2.2,49,0.00,,,0.00,WUHU216HW,2015-09-02 17:47:00,
2015-09-02 10:52:00,87.5,66.0,29.95,NE,45,0.9,1.8,49,0.00,,,0.00,WUHU216HW,2015-09-02 17:52:00,
2015-09-02 10:57:00,87.7,66.2,29.95,SE,135,1.1,2.2,49,0.00,,,0.00,WUHU216HW,2015-09-02 17:57:00,
2015-09-02 11:02:00,87.8,66.3,29.95,SSW,203,0.4,2.2,49,0.00,,,0.00,WUHU216HW,2015-09-02 18:02:00,
2015-09-02 11:07:00,88.2,67.3,29.95,South,180,0.4,1.1,50,0.00,,,0.00,WUHU216HW,2015-09-02 18:07:00,
2015-09-02 11:12:00,88.6,67.0,29.95,West,270,1.1,1.1,49,0.00,,,0.00,WUHU216HW,2015-09-02 18:12:00,
2015-09-02 11:17:00,88.7,66.5,29.95,SSW,203,0.9,1.3,48,0.00,,,0.00,WUHU216HW,2015-09-02 18:17:00,
2015-09-02 11:22:00,88.9,66.7,29.95,NNW,338,0.9,1.3,48,0.00,,,0.00,WUHU216HW,2015-09-02 18:22:00,
2015-09-02 11:27:00,88.9,66.0,29.95,East,90,1.1,2.2,47,0.00,,,0.00,WUHU216HW,2015-09-02 18:27:00,
2015-09-02 11:32:00,89.3,66.3,29.95,NNW,338,1.8,3.4,47,0.00,,,0.00,WUHU216HW,2015-09-02 18:32:00,
2015-09-02 11:37:00,89.5,66.5,29.94,NW,315,1.3,3.4,47,0.00,,,0.00,WUHU216HW,2015-09-02 18:37:00,
2015-09-02 11:42:00,89.5,65.8,29.94,West,270,1.8,2.5,46,0.00,,,0.00,WUHU216HW,2015-09-02 18:42:00,
2015-09-02 11:47:00,89.5,65.8,29.94,SW,225,1.1,2.7,46,0.00,,,0.00,WUHU216HW,2015-09-02 18:47:00,
2015-09-02 11:52:00,89.6,66.0,29.94,NW,315,1.3,2.7,46,0.00,,,0.00,WUHU216HW,2015-09-02 18:52:00,
2015-09-02 11:57:00,89.6,66.0,29.94,WSW,248,0.4,2.0,46,0.00,,,0.00,WUHU216HW,2015-09-02 18:57:00,
2015-09-02 12:02:00,90.0,66.3,29.94,West,270,2.5,3.8,46,0.00,,,0.00,WUHU216HW,2015-09-02 19:02:00,
2015-09-02 12:07:00,90.7,65.7,29.93,West,270,0.9,3.8,44,0.00,,,0.00,WUHU216HW,2015-09-02 19:07:00,
2015-09-02 12:12:00,91.1,65.3,29.93,WSW,248,2.5,3.4,43,0.00,,,0.00,WUHU216HW,2015-09-02 19:12:00,
2015-09-02 12:17:00,91.4,65.7,29.93,WSW,248,2.2,3.4,43,0.00,,,0.00,WUHU216HW,2015-09-02 19:17:00,
2015-09-02 12:22:00,91.8,65.3,29.93,West,270,1.6,2.5,42,0.00,,,0.00,WUHU216HW,2015-09-02 19:22:00,
2015-09-02 12:27:00,92.0,65.5,29.93,NNE,23,1.8,5.4,42,0.00,,,0.00,WUHU216HW,2015-09-02 19:27:00,
2015-09-02 12:32:00,92.5,66.0,29.93,South,180,2.5,5.4,42,0.00,,,0.00,WUHU216HW,2015-09-02 19:32:00,